This is the latest recevied weather packets stored in our database for station/object KC8YYF. If no packets are shown the sender has not sent any weather packets the latest 10 day(s).
| Time | Temp. | Humidity | Pressure | Rain* | Wind** | Luminosity | Snow |
|---|---|---|---|---|---|---|---|
| 1777923609 | 21.67° C | 55% | 1007.9 hPa | 0 mm | - | 103 W/m² | - |
| 1777923306 | 21.11° C | 54% | 1008 hPa | 0 mm | - | 93 W/m² | - |
| 1777923005 | 21.11° C | 53% | 1008.2 hPa | 0 mm | - | 72 W/m² | - |
| 1777922702 | 22.22° C | 51% | 1008.2 hPa | 0 mm | - | 44 W/m² | - |
| 1777922401 | 22.78° C | 52% | 1008.1 hPa | 0 mm | - | 86 W/m² | - |
| 1777922098 | 22.78° C | 52% | 1008.5 hPa | 0 mm | - | 104 W/m² | - |
| 1777921794 | 22.78° C | 57% | 1008.2 hPa | 0 mm | - | 116 W/m² | - |
| 1777921489 | 22.22° C | 54% | 1008.5 hPa | 0 mm | - | 84 W/m² | - |
| 1777921186 | 21.67° C | 55% | 1008.6 hPa | 0 mm | - | 368 W/m² | - |
| 1777920883 | 21.67° C | 55% | 1008.8 hPa | 0 mm | - | 100 W/m² | - |
| 1777920580 | 21.67° C | 52% | 1008.7 hPa | 0 mm | - | 615 W/m² | - |
| 1777920275 | 22.22° C | 54% | 1008.6 hPa | 0 mm | - | 686 W/m² | - |
| 1777919971 | 22.22° C | 52% | 1008.5 hPa | 0 mm | - | 656 W/m² | - |
| 1777919669 | 22.22° C | 53% | 1008.7 hPa | 0 mm | - | 498 W/m² | - |
| 1777919367 | 21.67° C | 53% | 1008.7 hPa | 0 mm | - | 700 W/m² | - |
| 1777919063 | 22.22° C | 54% | 1008.9 hPa | 0 mm | - | 654 W/m² | - |
| 1777918760 | 22.78° C | 53% | 1008.6 hPa | 0 mm | - | 617 W/m² | - |
| 1777918458 | 21.67° C | 54% | 1008.9 hPa | 0 mm | - | 554 W/m² | - |
| 1777918156 | 21.67° C | 54% | 1008.8 hPa | 0 mm | - | 681 W/m² | - |
| 1777917855 | 21.67° C | 52% | 1008.9 hPa | 0 mm | - | 691 W/m² | - |
| 1777917553 | 21.67° C | 53% | 1008.8 hPa | 0 mm | - | 667 W/m² | - |
| 1777917249 | 21.67° C | 52% | 1008.9 hPa | 0 mm | - | 667 W/m² | - |
| 1777916947 | 22.22° C | 54% | 1009 hPa | 0 mm | - | 643 W/m² | - |
| 1777916644 | 21.11° C | 54% | 1009.1 hPa | 0 mm | - | 700 W/m² | - |
| 1777916341 | 21.11° C | 53% | 1009 hPa | 0 mm | - | 688 W/m² | - |
* Rain latest hour (hover to see other rain measurements)
** Current wind speed in m/s (hover to see current wind gust speed)